Weather in Chitayevo

Russia / Komi Republic     60°28′14″N   49°33′26″E
temp.,
°C
wind,
m/s
gust,
m/s
humid.,
%
clouds,
%
prec.,
mm/h
press.,
hPa
HPBL,
m
26 february, fri
fri2600:00−20sse3896100 0.0 1019312
03:00−21sse3796100 0.0 1019323
06:00−21sse3895100 0.0 1018381
09:00−20sse4994100 0.0 1016421
12:00−17sse4989100 0.0 1015592
15:00−16sse51089100 0.1 1012642
18:00−18se51292100 0.1 1010619
21:00−18se41192100 0.1 1009586
27 february, sat
sat2700:00−19ese41193100 0.0 1008533
03:00−20ese41095100 0.1 1008459
06:00−20e3995100 0.0 1008407
09:00−18e3892100 0.0 1009433
12:00−15e3688100 0.0 1009585
15:00−13ene3688100 0.1 1010609
18:00−16ne2497100 0.1 101191
21:00−18ne239775 0.1 101235
28 february, sun
sun2800:00−20ne229918 0.0 101320
03:00−21ne229949 0.0 101520
06:00−22ene129861 0.0 101520
09:00−19e139131 0.0 1016202
12:00−14ne128010 0.0 1017383
15:00−12ne118122 0.0 1017426
18:00−18n119319 0.0 101820
21:00−19wsw00969 0.0 102020
1 march, mon
mon100:00−20wsw11979 0.0 102020
03:00−20wsw129827 0.0 102120
06:00−20wsw229959 0.0 102124
09:00−16sw259443 0.0 1021205
12:00−11sw369282 0.0 1019344
15:00−8sw489291 0.1 1016500
18:00−8sw51293100 0.1 1013540
21:00−7sw51394100 0.4 1010732
2 march, tue
tue200:00−5sw51295100 1.4 1005742
03:00−3wsw51296100 2.9 1003701
06:00−2wsw3996100 0.6 1001345
09:00−1w489298 0.6 1000650
12:000w478995 0.2 999925
15:000wnw598698 0.4 9991106
18:00−3w41196100 0.3 999764
21:00−3wnw41195100 0.8 1000740